Weather in Agsu

Azerbaijan     40°34′10″N   48°23′36″E
temp.,
°C
wind,
m/s
gust,
m/s
humid.,
%
clouds,
%
prec.,
mm/h
press.,
hPa
HPBL,
m
20 september, mon
mon2001:00+20n11500 0.0 101411
04:00+19nw11540 0.0 101311
07:00+18n11570 0.0 101411
10:00+23sw23450 0.0 1013693
13:00+27sw33350 0.0 10111298
16:00+30s32300 0.0 10091619
19:00+27se33362 0.0 101051
22:00+23sse1251100 0.0 101278
21 september, tue
tue2101:00+21nnw226077 0.0 101432
04:00+21nnw115752 0.0 101313
07:00+20nw11570 0.0 101415
10:00+25sw32470 0.0 1014754
13:00+28sw33350 0.0 10121546
16:00+31sw33291 0.0 10091825
19:00+26sse59435 0.0 1009382
22:00+23wsw115854 0.0 101112
22 september, wed
wed2201:00+21nnw2265100 0.0 101017
04:00+20n116698 0.0 101011
07:00+20ene1163100 0.0 101012
10:00+25sse2249100 0.0 1010678
13:00+30sse443280 0.0 10081532
16:00+30sse543148 0.0 10061761
19:00+25se3446100 0.0 1007148
22:00+23ene015898 0.0 100917
23 september, thu
thu2301:00+21nnw22644 0.1 100821
04:00+20wnw226773 0.1 100946
07:00+19wnw1270100 0.0 101053
10:00+24w3255100 0.0 1010789
13:00+28ssw323877 0.0 10081556
16:00+29s333399 0.0 10051639
19:00+26sse234314 0.0 100544
22:00+22wnw11594 0.0 100614
24 september, fri
fri2401:00+20nw11630 0.0 100516
04:00+19wnw22704 0.0 100530
07:00+18nw22723 0.0 100525
10:00+24wsw33520 0.0 1005590
13:00+30wsw34330 0.0 1003837
16:00+33s33240 0.0 10031227
19:00+27sse234398 0.0 100554
22:00+22wnw58571 0.0 1010368